Temperature
31 31 30 31 31 31 31 31 32 32 33 32 32 32 32 32 31 30 29 28 27 26 25 25 24 24 23 22 22 21 21 21 21 20 20 20 20 20 20 20 19 19 19 18
31 30 31 31 31 31 31 31 31 32 32 32 31 31 32 31 30 29 27 26 26 25 24 23 23 22 22 21 21 21 20 20 20 20 20 20 20 20 20 20 19 19 18 18
30 30 31 31 31 30 31 30 30 30 31 31 31 30 31 30 28 26 25 24 23 23 22 22 21 21 21 20 20 20 20 20 20 20 20 20 20 20 19 19 19 19 18 18
30 31 31 31 30 30 29 30 30 30 29 29 30 28 29 28 26 24 22 21 20 21 20 20 20 20 20 20 20 20 19 19 19 19 19 19 19 19 19 19 19 19 18 18
30 31 30 30 30 30 30 31 30 30 29 29 29 28 28 27 24 22 21 20 19 20 20 19 19 19 19 19 19 19 19 19 19 19 19 19 18 19 19 18 18 18 18 18
30 31 31 31 31 31 31 30 30 29 27 25 25 24 25 26 24 23 22 21 20 20 19 18 18 18 18 18 18 18 18 18 18 18 18 18 18 18 18 18 18 18 17 17
28 30 31 31 30 30 30 28 27 25 22 21 21 23 24 25 25 24 23 22 21 19 19 18 17 17 16 16 16 17 17 17 17 17 17 17 16 16 16 17 17 17 17 17
27 26 29 31 30 29 29 28 26 25 25 24 23 24 22 22 22 22 22 21 20 19 18 17 17 16 15 15 15 15 15 16 16 16 16 15 15 15 15 16 16 16 16 16
27 27 30 31 31 30 29 29 29 28 27 27 26 23 20 20 20 21 21 21 20 19 18 17 17 16 15 15 14 14 14 14 14 14 15 14 14 15 15 15 15 15 15 15
29 28 30 31 31 31 30 30 29 27 25 25 26 24 21 19 19 20 21 20 20 19 19 18 17 16 15 15 14 14 14 13 13 13 13 13 13 14 14 14 14 14 14 14
30 28 29 29 29 29 29 29 28 27 27 25 25 24 23 20 20 21 21 20 19 18 18 17 17 16 15 15 14 14 13 13 12 12 12 12 12 12 12 12 13 13 13 13
29 28 27 28 28 28 28 28 28 26 25 26 25 22 22 21 21 20 20 19 18 17 17 16 16 15 15 14 13 13 13 12 12 12 12 12 11 11 11 11 11 12 12 12
28 26 25 27 26 27 27 28 28 27 26 25 24 21 21 20 20 19 19 18 17 17 16 16 15 14 14 13 13 12 12 12 12 11 11 11 11 11 11 11 11 11 11 11
27 26 26 25 27 28 28 28 28 26 25 24 24 21 20 20 20 19 18 18 17 17 16 15 15 14 13 13 13 12 12 12 11 11 11 11 11 11 10 10 10 10 10 10
28 27 27 27 28 29 28 27 27 25 24 23 23 22 20 20 19 19 18 17 17 17 16 15 14 14 13 13 13 12 12 12 11 11 11 11 11 10 10 10 10 10 10 10
27 26 26 26 28 28 26 25 25 24 24 23 22 22 20 20 19 18 18 17 17 16 16 15 14 14 13 13 12 12 12 11 11 11 11 11 10 10 10 10 10 10 10 10
27 25 25 25 27 27 24 22 23 22 23 22 21 21 20 19 18 18 17 17 16 15 15 14 14 13 13 12 12 12 11 11 11 11 10 10 10 10 10 10 10 10 10 9
25 24 24 25 26 23 21 23 22 22 22 22 21 20 19 18 17 17 17 16 15 14 14 14 13 13 12 12 12 11 11 11 11 10 10 10 10 10 10 9 9 9 9 9
26 25 24 25 24 23 22 21 21 20 20 19 18 18 18 17 16 17 16 15 14 14 13 13 12 12 12 11 11 11 11 10 10 10 10 10 10 9 9 9 9 9 8 8
27 26 25 24 23 22 20 21 21 21 20 18 18 17 17 16 16 16 15 14 14 13 13 12 12 12 11 11 11 10 10 10 9 9 9 9 9 9 8 8 8 8 8 8
25 25 25 24 23 22 21 21 21 19 18 17 17 16 16 15 15 15 14 14 13 13 12 12 12 11 11 10 10 10 9 9 9 9 8 8 8 8 8 8 8 8 8 8
24 24 23 23 22 21 21 20 19 18 17 17 16 16 15 15 14 14 14 13 13 12 12 12 11 11 10 10 10 9 9 8 8 8 8 8 7 7 8 8 8 8 8 7
24 22 22 22 21 21 20 19 18 17 17 16 15 15 15 14 14 14 13 13 12 12 11 11 11 10 10 9 9 8 8 8 7 7 7 7 7 7 7 7 7 7 7 7
23 22 22 21 22 21 20 19 18 17 16 15 15 15 14 14 14 13 13 12 12 11 11 10 10 9 9 8 8 7 7 7 7 6 6 6 6 6 7 7 7 7 7 7
23 23 22 21 21 19 19 17 17 16 15 15 15 14 14 14 13 13 12 12 11 10 10 9 9 8 7 7 7 6 6 6 6 6 6 6 6 6 6 6 7 7 7 7
23 22 20 20 19 18 17 16 16 15 15 15 14 14 14 13 13 12 12 11 10 10 9 8 7 7 6 6 6 6 5 5 5 5 5 5 5 6 6 6 6 7 7 7
Wind_Speed
9 10 8 7 7 11 13 13 12 7 4 4 8 10 9 3 5 4 3 5 7 7 7 6 5 6 8 8 8 7 6 5 2 2 3 3 3 2 1 2 4 2 1 3
7 5 5 7 7 9 10 11 11 8 5 6 10 14 12 5 2 1 4 2 3 7 8 7 6 6 6 7 6 7 6 4 2 2 1 1 1 2 2 1 4 3 1 1
4 2 4 6 7 8 8 9 9 9 8 10 12 15 11 5 3 7 9 9 8 8 8 7 7 7 6 6 5 5 5 4 1 1 0 0 1 2 2 1 2 3 1 2
5 3 5 7 7 9 8 8 9 11 12 12 12 12 8 4 7 9 10 10 10 11 10 9 9 8 8 7 6 7 5 3 1 0 1 2 2 2 3 2 1 2 2 3
6 7 8 8 7 8 8 9 11 14 15 16 13 11 4 7 9 8 7 6 7 9 10 11 11 10 9 9 8 7 5 4 3 3 3 4 4 4 4 4 3 2 4 5
11 9 7 7 7 7 9 11 13 11 10 13 11 10 4 4 7 9 9 7 8 10 11 12 11 11 11 11 10 9 6 4 4 5 5 5 6 6 7 7 6 5 5 5
10 8 5 6 7 6 8 11 9 7 3 5 8 8 0 6 7 9 10 10 12 12 12 12 13 13 12 13 12 11 11 9 8 8 7 7 7 7 6 6 7 6 6 5
4 5 6 5 6 7 8 10 10 12 11 6 9 5 7 9 10 11 11 11 11 11 11 11 11 11 11 11 11 11 10 9 10 9 9 8 8 7 7 8 8 8 6 6
5 6 7 7 8 7 7 9 12 13 15 14 3 5 5 7 5 5 6 8 9 9 9 8 8 8 8 8 8 8 8 8 8 8 8 7 7 7 8 8 8 7 7 9
7 10 11 9 10 7 7 9 8 8 10 13 12 1 4 9 7 3 3 6 7 7 7 7 7 7 7 7 7 6 6 6 6 7 7 8 7 7 7 7 7 8 8 8
10 10 11 9 7 10 9 9 8 8 9 12 14 6 5 9 5 2 4 6 7 8 8 8 8 7 7 8 8 8 7 7 6 6 6 7 7 7 7 7 8 8 8 9
10 9 11 12 8 10 10 8 7 7 9 11 13 4 9 8 7 6 6 6 7 8 9 10 10 9 9 9 10 9 9 8 8 7 7 7 7 8 8 9 8 9 9 10
9 7 11 7 1 3 8 8 7 7 8 11 12 3 4 4 5 4 6 7 8 10 11 11 10 10 10 10 10 10 10 10 10 9 9 9 9 9 9 9 9 10 10 10
3 7 11 14 15 15 10 9 7 7 8 11 12 6 1 3 5 7 9 11 13 13 13 12 9 8 9 9 10 11 10 11 10 9 10 10 10 10 10 11 10 10 10 10
5 9 12 15 17 14 10 8 9 9 10 10 14 12 6 6 8 10 12 14 16 17 15 11 9 9 9 10 9 10 10 10 10 10 10 10 10 10 10 10 10 10 10 12
7 8 13 16 14 10 6 9 9 9 10 11 14 11 6 8 11 13 16 18 20 18 14 14 13 13 12 11 12 11 10 10 9 10 11 10 10 11 11 10 11 11 10 10
9 11 13 14 13 9 5 10 10 10 11 13 15 12 11 13 15 17 19 21 18 15 17 17 16 13 11 12 11 11 11 10 10 11 12 11 11 11 11 14 12 11 10 11
6 9 7 12 12 6 7 8 9 10 12 13 12 12 14 17 19 20 20 15 17 20 20 18 17 16 14 13 12 11 13 12 12 12 12 12 12 12 11 11 11 10 9 10
1 4 7 7 11 3 5 7 9 12 13 12 13 16 20 21 22 19 17 20 21 20 18 17 17 19 15 14 14 13 14 14 15 15 13 13 12 12 12 12 11 10 10 10
3 5 8 9 11 8 5 9 11 13 7 13 18 20 21 23 21 18 21 22 20 18 17 17 19 18 15 13 12 14 17 16 16 15 14 13 12 13 13 12 11 11 10 11
10 10 8 9 11 4 8 13 15 11 11 18 19 20 21 20 20 21 23 22 20 18 18 17 16 15 13 13 12 15 16 15 15 15 14 13 12 12 13 12 11 10 11 11
7 8 8 8 9 4 11 13 11 11 14 17 19 21 22 22 23 24 23 21 21 21 21 20 15 14 12 12 13 15 15 15 14 14 15 14 13 15 15 11 10 10 10 10
4 5 5 5 6 6 8 10 10 12 16 18 20 21 22 24 25 25 23 21 21 20 19 19 18 15 13 13 13 17 16 15 16 16 15 15 15 13 13 12 12 11 10 9
4 3 4 6 7 9 10 12 15 16 17 19 20 22 23 24 26 25 22 20 19 19 19 18 18 19 18 16 16 16 17 16 15 16 15 14 13 14 12 10 10 9 9 8
3 4 6 9 9 11 13 16 17 18 19 20 21 22 23 25 25 23 20 19 18 19 18 18 18 19 19 18 17 18 17 16 17 17 15 14 13 13 11 11 9 10 9 8
4 5 5 8 10 11 15 16 18 19 20 21 22 23 23 23 23 23 22 19 19 20 19 19 19 20 21 20 19 19 17 16 16 15 14 11 10 10 10 10 10 11 10 10
Wind_Direction
244 250 281 316 309 304 305 305 306 315 23 301 282 280 276 212 228 224 167 180 173 155 136 109 114 111 116 117 114 114 121 117 135 165 189 182 172 210 194 155 113 92 349 354
264 283 329 325 312 296 290 294 299 306 317 292 284 276 268 248 245 53 80 40 113 133 123 118 114 104 102 106 120 123 122 129 151 147 186 136 115 235 201 134 140 157 145 342
295 326 311 297 301 299 300 307 313 314 309 283 273 268 257 239 70 50 47 43 41 65 76 86 86 83 88 106 113 116 111 114 123 122 271 179 194 253 250 193 168 151 151 264
310 306 298 300 305 306 317 329 317 301 289 283 280 280 267 153 95 66 49 37 37 55 61 60 57 56 67 71 74 76 80 86 59 312 340 315 286 295 312 300 275 143 217 235
300 295 292 299 307 308 310 306 294 290 288 283 283 280 262 122 110 96 86 75 54 61 65 60 56 42 46 51 51 54 69 52 22 360 342 317 311 316 321 330 317 306 265 236
292 285 289 297 298 298 304 299 290 293 302 292 310 300 258 137 137 128 121 109 88 71 65 59 57 54 46 44 39 35 37 30 18 6 352 344 329 322 316 314 308 294 274 251
303 310 302 289 300 317 308 301 303 308 310 281 287 276 161 93 111 109 99 84 73 65 59 53 46 39 36 38 36 32 29 25 17 11 359 348 335 323 311 303 295 287 285 284
336 322 297 306 321 314 306 297 299 306 303 276 224 238 93 62 60 72 78 78 71 67 61 55 50 43 32 33 31 26 26 22 15 11 1 355 347 333 323 323 321 312 309 310
317 305 300 313 303 299 302 305 312 305 304 308 287 103 96 84 55 60 72 68 59 53 54 49 44 39 32 26 27 20 15 11 5 360 347 344 354 341 332 327 317 315 316 308
311 311 313 308 294 281 279 303 309 312 314 312 316 57 167 169 169 177 89 58 45 28 28 30 28 20 13 5 3 0 354 350 343 338 333 336 341 332 327 319 314 310 310 309
319 307 303 309 314 321 316 312 322 316 311 314 315 354 85 139 149 130 74 49 25 4 357 354 354 352 345 340 339 340 336 332 327 321 316 316 317 319 318 313 313 313 310 305
340 325 317 310 337 340 317 312 311 312 316 312 309 19 55 71 65 42 35 23 3 344 337 336 336 335 331 330 331 327 324 318 312 308 306 304 304 303 301 302 303 302 301 301
344 322 307 307 19 269 282 290 305 312 305 307 317 17 93 82 61 34 359 346 335 330 326 320 317 318 316 315 314 309 305 301 297 295 292 288 286 285 285 285 284 285 285 287
292 284 288 299 307 312 310 318 343 345 327 323 337 12 65 42 9 355 345 333 325 318 311 307 306 302 298 295 292 292 289 288 286 282 281 278 275 273 271 272 272 273 277 281
325 306 312 307 307 312 324 345 2 1 351 338 339 352 32 25 351 338 332 327 321 316 313 314 312 305 303 302 297 294 291 290 288 287 284 278 275 274 271 272 273 271 270 278
328 309 308 306 312 317 353 22 16 5 356 341 331 337 15 348 337 332 329 324 317 317 326 329 321 315 313 311 306 303 298 293 288 285 285 285 282 281 277 273 270 272 272 274
338 338 319 307 308 304 30 30 15 358 347 339 328 341 353 339 333 330 327 316 321 337 330 320 316 314 310 307 301 297 297 294 290 287 288 286 284 282 279 283 280 275 277 279
344 330 308 302 314 330 73 42 17 347 340 344 348 355 344 332 328 323 314 328 337 327 321 318 316 312 306 303 301 298 297 293 290 288 286 284 283 285 284 283 283 282 282 282
2 328 316 325 337 61 95 34 4 340 329 25 2 342 333 330 320 314 331 336 325 318 316 314 311 309 305 302 300 297 296 295 293 292 289 289 287 288 286 284 284 285 283 281
323 302 295 321 325 341 55 12 345 318 302 19 348 336 330 325 319 320 327 320 317 318 315 311 309 306 302 302 302 298 296 294 293 292 291 290 287 286 286 284 282 282 281 279
340 328 330 333 321 48 25 354 343 327 335 341 332 328 324 322 315 313 317 319 318 314 312 310 307 305 304 302 297 295 295 293 292 292 290 288 285 283 281 276 273 272 273 274
338 338 353 338 326 20 7 356 355 328 327 327 326 324 321 317 315 316 317 316 315 314 313 313 310 304 302 302 302 299 296 296 296 294 291 289 286 285 285 282 281 276 270 270
24 39 340 337 325 344 351 346 347 342 331 327 324 321 319 318 318 317 316 315 315 315 315 314 311 309 309 308 304 301 300 300 297 293 290 288 287 283 279 276 275 275 267 262
92 54 324 316 324 349 347 350 347 339 329 324 322 321 320 318 317 316 317 317 317 318 318 317 317 314 311 310 307 303 302 300 297 294 292 289 286 282 278 273 269 268 267 263
326 330 328 314 353 343 339 344 336 328 328 325 322 321 320 318 318 320 320 321 321 321 321 322 317 315 314 314 310 307 305 303 299 295 291 287 284 281 278 273 265 262 259 257
45 31 350 336 348 327 325 331 329 330 327 325 324 322 322 323 324 325 323 324 324 323 323 321 320 317 314 310 306 303 301 299 295 292 289 286 283 278 272 270 272 257 249 248
Height
1476 1477 1474 1469 1466 1466 1463 1462 1460 1454 1450 1455 1458 1458 1455 1456 1461 1462 1466 1469 1473 1475 1477 1481 1483 1484 1486 1488 1490 1492 1494 1497 1500 1502 1502 1503 1505 1507 1509 1509 1508 1508 1507 1507
1475 1477 1471 1468 1466 1466 1465 1467 1464 1457 1453 1456 1461 1459 1453 1455 1459 1463 1466 1471 1472 1474 1476 1479 1481 1484 1486 1487 1488 1490 1494 1496 1499 1500 1501 1502 1503 1505 1507 1507 1506 1505 1505 1505
1476 1475 1470 1468 1468 1469 1467 1469 1468 1467 1461 1457 1461 1463 1457 1457 1461 1466 1469 1473 1477 1478 1478 1481 1482 1485 1487 1487 1487 1490 1493 1496 1498 1499 1499 1501 1502 1504 1505 1504 1504 1503 1503 1502
1473 1470 1470 1470 1471 1469 1474 1466 1466 1467 1470 1470 1465 1477 1462 1459 1465 1474 1478 1481 1482 1481 1482 1484 1483 1485 1485 1486 1487 1492 1494 1495 1497 1498 1498 1500 1500 1501 1502 1501 1502 1501 1500 1499
1477 1471 1471 1472 1470 1468 1470 1465 1466 1467 1469 1472 1468 1476 1469 1462 1475 1481 1485 1487 1487 1485 1485 1486 1485 1486 1486 1487 1489 1491 1491 1494 1495 1497 1497 1498 1498 1498 1499 1498 1498 1497 1497 1496
1473 1468 1467 1467 1465 1465 1465 1466 1466 1468 1477 1492 1488 1493 1481 1471 1475 1480 1484 1486 1487 1487 1488 1488 1489 1489 1489 1489 1490 1491 1491 1492 1494 1494 1494 1494 1494 1494 1494 1494 1494 1494 1494 1493
1481 1471 1467 1466 1468 1467 1468 1477 1489 1498 1510 1512 1498 1495 1483 1474 1474 1478 1482 1486 1488 1489 1490 1490 1491 1491 1491 1490 1490 1491 1491 1491 1491 1490 1491 1491 1491 1490 1490 1490 1490 1490 1489 1489
1492 1495 1474 1465 1468 1472 1470 1475 1491 1502 1498 1492 1491 1489 1488 1485 1485 1486 1487 1489 1491 1492 1493 1494 1494 1494 1494 1493 1492 1491 1490 1489 1488 1488 1488 1487 1486 1486 1486 1486 1485 1485 1484 1484
1489 1488 1468 1464 1464 1465 1471 1471 1466 1475 1474 1477 1475 1487 1492 1491 1491 1491 1490 1491 1493 1495 1496 1497 1497 1497 1496 1496 1494 1492 1490 1489 1487 1486 1485 1484 1483 1482 1481 1480 1480 1479 1478 1477
1475 1483 1470 1464 1462 1461 1463 1464 1469 1479 1491 1492 1477 1483 1492 1496 1495 1492 1493 1494 1496 1497 1497 1498 1498 1498 1497 1496 1494 1492 1490 1488 1486 1484 1483 1481 1479 1478 1476 1475 1474 1473 1471 1470
1472 1481 1476 1469 1472 1471 1468 1468 1470 1474 1478 1491 1493 1492 1481 1489 1493 1493 1494 1496 1498 1499 1499 1498 1498 1497 1496 1494 1493 1491 1488 1486 1484 1481 1479 1477 1475 1473 1472 1470 1468 1466 1465 1464
1475 1478 1484 1476 1469 1469 1468 1470 1473 1486 1488 1483 1488 1499 1488 1491 1493 1495 1497 1499 1500 1500 1499 1498 1496 1495 1493 1492 1490 1488 1485 1483 1480 1478 1476 1473 1471 1469 1466 1464 1462 1460 1458 1457
1482 1489 1496 1486 1482 1476 1473 1468 1468 1474 1481 1485 1494 1504 1493 1495 1496 1499 1500 1500 1500 1499 1497 1496 1494 1492 1490 1489 1486 1484 1482 1479 1476 1474 1471 1468 1466 1463 1461 1458 1456 1454 1452 1450
1482 1487 1494 1498 1485 1471 1470 1468 1468 1476 1486 1489 1490 1497 1495 1496 1498 1498 1499 1499 1498 1496 1494 1492 1490 1488 1486 1484 1482 1479 1477 1474 1471 1468 1465 1462 1460 1457 1455 1452 1450 1448 1446 1444
1481 1485 1482 1477 1469 1466 1468 1470 1472 1479 1485 1491 1491 1493 1496 1497 1499 1499 1498 1497 1495 1492 1490 1488 1486 1484 1482 1480 1477 1474 1471 1469 1466 1463 1460 1457 1454 1451 1448 1446 1444 1442 1440 1438
1481 1486 1484 1480 1470 1467 1473 1477 1480 1485 1488 1491 1492 1494 1496 1497 1498 1497 1496 1494 1491 1488 1485 1484 1482 1480 1477 1474 1471 1468 1465 1463 1460 1456 1453 1450 1447 1445 1442 1439 1437 1435 1433 1431
1484 1489 1490 1486 1472 1472 1488 1492 1492 1493 1492 1494 1496 1496 1496 1497 1497 1495 1493 1490 1487 1485 1483 1481 1478 1475 1472 1469 1465 1462 1459 1456 1452 1449 1446 1443 1440 1437 1435 1432 1430 1428 1426 1424
1491 1492 1490 1484 1480 1497 1502 1493 1495 1497 1494 1494 1494 1497 1498 1498 1496 1494 1491 1486 1484 1482 1479 1476 1473 1469 1466 1462 1459 1455 1451 1448 1445 1441 1438 1435 1433 1430 1427 1425 1422 1420 1418 1417
1488 1491 1492 1488 1490 1496 1499 1498 1499 1501 1499 1500 1501 1500 1498 1496 1493 1489 1487 1485 1482 1478 1475 1471 1467 1463 1458 1455 1451 1447 1443 1440 1437 1433 1430 1427 1425 1422 1419 1416 1414 1413 1411 1409
1484 1484 1488 1490 1498 1502 1506 1500 1499 1499 1497 1503 1501 1500 1497 1494 1489 1485 1484 1481 1477 1473 1469 1464 1460 1455 1451 1447 1443 1439 1435 1432 1428 1425 1422 1419 1416 1413 1411 1408 1406 1404 1403 1401
1491 1488 1489 1494 1498 1497 1503 1501 1500 1504 1507 1503 1502 1499 1496 1493 1490 1484 1479 1475 1471 1466 1462 1457 1452 1447 1443 1439 1435 1430 1426 1423 1419 1416 1412 1410 1407 1404 1402 1399 1398 1396 1395 1393
1496 1496 1498 1500 1503 1508 1504 1503 1507 1510 1505 1503 1500 1497 1493 1489 1484 1479 1474 1469 1464 1459 1454 1450 1445 1440 1435 1431 1427 1421 1417 1414 1410 1407 1403 1400 1397 1395 1393 1391 1389 1388 1387 1386
1495 1503 1504 1506 1508 1506 1505 1506 1507 1506 1504 1501 1498 1494 1489 1484 1479 1473 1468 1463 1458 1453 1447 1442 1437 1431 1427 1423 1419 1413 1408 1404 1400 1396 1393 1390 1388 1385 1384 1382 1380 1380 1379 1378
1498 1502 1502 1504 1501 1503 1505 1505 1505 1504 1502 1498 1495 1490 1485 1479 1474 1468 1462 1456 1451 1446 1440 1435 1429 1424 1418 1414 1409 1404 1399 1394 1390 1386 1383 1380 1378 1376 1374 1373 1372 1372 1372 1371
1499 1499 1502 1503 1503 1505 1504 1505 1504 1501 1498 1495 1491 1487 1481 1475 1468 1463 1456 1451 1445 1440 1434 1428 1422 1416 1410 1404 1399 1394 1389 1384 1380 1376 1373 1370 1368 1367 1365 1364 1364 1364 1364 1365
1497 1502 1506 1508 1508 1508 1506 1504 1502 1498 1495 1491 1486 1481 1476 1471 1464 1458 1452 1446 1440 1434 1428 1421 1415 1408 1401 1395 1388 1383 1379 1374 1369 1365 1363 1361 1359 1357 1357 1356 1356 1356 1358 1358